Weather History for Grand Canyon, AZ

Change the Weather History Date:

Wednesday, June 18, 2014

  Actual Average Record
Temperature  
Mean Temperature 56 °F -  
Max Temperature 75 °F 79 °F 91 °F (1985)
Min Temperature 37 °F 36 °F 28 °F (1998)
Degree Days  
Heating Degree Days 9    
Growing Degree Days 6 (Base 50)    
Moisture  
Dew Point 22 °F    
Average Humidity 27    
Maximum Humidity 53    
Minimum Humidity 12    
Precipitation  
Precipitation 0.00 in - - ()
Sea Level Pressure  
Sea Level Pressure 29.84 in    
Wind  
Wind Speed 5 mph (WSW)    
Max Wind Speed 15 mph    
Max Gust Speed 24 mph    
Visibility 10 miles    
Events      
Averages and records for this station are not official NWS values.
T = Trace of Precipitation, MM = Missing Value Source: NWS Daily Summary

Daily Weather History Graph

Daily Weather History Graph

Search for Another Location

Airport:

Trip Planner

Search our weather history database for the weather conditions in past years. The results will help you decide how hot, cold, wet, or windy it might be!

Date:

Astronomy

Jun. 18, 2014 Rise Set
Actual Time 5:11 AM MST 7:47 PM MST
Civil Twilight 4:41 AM MST 8:18 PM MST
Nautical Twilight 4:04 AM MST 8:55 PM MST
Astronomical Twilight 3:22 AM MST 9:37 PM MST
Moon No Moon Rise 11:28 AM MST (6/18)
Length of Visible Light 15h 36m
Length of Day
14h 35m
Waning Gibbous, 61% of the Moon is Illuminated
Jun 18
Waning Gibbous
Jun 19
Last Quarter
Jun 27
New
Jul 5
First Quarter
Jul 12
Full

Hourly Weather History & Observations

Time (MST) Temp. Windchill Dew Point Humidity Pressure Visibility Wind Dir Wind Speed Gust Speed Precip Events Conditions
12:54 AM 42.1 °F - 21.0 °F 43% 29.78 in 10.0 mi Calm Calm - N/A   Clear
1:54 AM 43.0 °F 41.3 °F 23.0 °F 45% 29.78 in 10.0 mi NE 3.5 mph - N/A   Clear
2:54 AM 41.0 °F 36.4 °F 23.0 °F 49% 29.78 in 10.0 mi NE 6.9 mph - N/A   Clear
3:54 AM 39.0 °F - 21.9 °F 50% 29.80 in 10.0 mi Calm Calm - N/A   Clear
4:54 AM 37.9 °F - 21.9 °F 53% 29.82 in 10.0 mi Calm Calm - N/A   Clear
5:54 AM 44.1 °F - 24.1 °F 45% 29.82 in 10.0 mi Calm Calm - N/A   Clear
6:54 AM 55.9 °F - 27.0 °F 33% 29.80 in 10.0 mi SW 10.4 mph - N/A   Clear
7:54 AM 60.1 °F - 27.0 °F 28% 29.82 in 10.0 mi SW 11.5 mph - N/A   Clear
8:54 AM 62.1 °F - 28.9 °F 29% 29.83 in 10.0 mi SSW 10.4 mph 16.1 mph N/A   Clear
9:54 AM 64.9 °F - 30.0 °F 27% 29.84 in 10.0 mi SW 8.1 mph 20.7 mph N/A   Clear
10:54 AM 66.9 °F - 28.0 °F 23% 29.85 in 10.0 mi Calm Calm - N/A   Clear
11:54 AM 71.1 °F - 26.1 °F 19% 29.84 in 10.0 mi West 13.8 mph 23.0 mph N/A   Clear
12:54 PM 72.0 °F - 25.0 °F 17% 29.87 in 10.0 mi WSW 10.4 mph 19.6 mph N/A   Clear
1:54 PM 73.9 °F - 23.0 °F 15% 29.85 in 10.0 mi WSW 8.1 mph 23.0 mph N/A   Partly Cloudy
2:54 PM 75.9 °F - 21.0 °F 13% 29.85 in 10.0 mi WNW 13.8 mph 21.9 mph N/A   Clear
3:54 PM 75.9 °F - 19.9 °F 12% 29.84 in 10.0 mi WSW 12.7 mph 18.4 mph N/A   Clear
4:54 PM 75.9 °F - 19.0 °F 12% 29.85 in 10.0 mi WSW 15.0 mph 21.9 mph N/A   Clear
5:54 PM 73.9 °F - 19.0 °F 13% 29.84 in 10.0 mi WSW 15.0 mph 24.2 mph N/A   Clear
6:54 PM 72.0 °F - 17.1 °F 12% 29.82 in 10.0 mi West 6.9 mph 17.3 mph N/A   Clear
7:54 PM 68.0 °F - 17.1 °F 14% 29.84 in 10.0 mi WSW 6.9 mph - N/A   Clear
8:54 PM 64.0 °F - 19.0 °F 18% 29.86 in 10.0 mi WSW 6.9 mph - N/A   Clear
9:54 PM 60.1 °F - 21.0 °F 22% 29.88 in 10.0 mi Variable 3.5 mph - N/A   Clear
10:54 PM 50.0 °F - 17.1 °F 27% 29.92 in 10.0 mi Calm Calm - N/A   Clear
11:54 PM 44.1 °F 42.5 °F 16.0 °F 32% 29.95 in 10.0 mi NE 3.5 mph - N/A   Clear